Location: Unspecified
(17.6330°N, 0.0000°E)
Time: 17:47:55
(UTC+00:00)

S-56A Canister/Altair - Pass Details

Date: 04 July 2019
Orbit: 633 x 2499 km, 38.9° (Epoch: 22 August)

Event Time Altitude Azimuth Distance (km) Brightness Sun altitude
Rises 10:49:01 0° 244° (WSW) 6,016 11.9 71.6°
Reaches altitude 10° 10:52:54 10° 248° (WSW) 5,101 11.7 72.4°
Maximum altitude 11:07:53 63° 326° (NW) 2,629 11.4 75.8°
Drops below altitude 10° 11:20:51 10° 46° (NE) 4,464 11.7 78.5°
Sets 11:24:03 0° 50° (NE) 5,251 11.9 79.2°
